Cloud_Cover
32 48 92 92 92 76 20 20 12 12 12 8 8 8 12 12 12 20 32 20 36 44 8 36 24 0 0 8 8 8 8 8 32 44 36 76 56 32 44 32 24 20 12 8 0 0 8 8 8 8 8 8 8 0 0 0 0 0 0 0 0 0 0 20 12 0 12 8 8 8 0 0 0 0 0 8 8 8 8 20 20 8 12 12 12 20 20 20 20 24 24 20 20 36 92 88 76 64 64 44 24 20 20
48 76 56 56 56 48 20 12 12 12 12 8 8 8 12 12 32 36 12 64 64 44 36 56 32 0 0 8 8 8 8 8 12 20 20 68 48 12 12 56 64 56 24 20 12 8 8 8 8 8 8 8 8 0 0 0 0 0 0 0 0 0 0 0 0 8 20 8 8 8 8 8 8 8 8 8 12 12 24 24 24 20 12 20 20 24 24 24 24 24 24 12 12 20 36 44 48 64 68 32 12 12 20
56 92 88 64 48 36 12 12 12 12 12 8 8 8 8 12 32 44 12 76 92 76 44 76 56 20 0 0 0 0 8 8 8 12 36 68 48 20 8 24 44 48 48 36 20 8 8 8 8 8 8 8 8 8 8 0 0 0 0 0 0 0 0 0 0 8 12 8 8 8 0 8 8 8 8 12 20 20 20 24 24 24 24 20 20 20 20 24 20 20 12 12 8 12 20 20 24 32 48 24 12 12 24
24 48 92 80 48 12 12 12 8 8 8 8 8 8 8 8 24 48 88 92 92 88 68 64 64 48 24 12 8 0 0 8 8 20 68 88 64 24 8 20 24 24 24 32 24 12 0 8 8 8 8 8 8 8 8 8 8 0 0 0 0 0 8 0 0 0 12 8 8 8 8 12 12 8 8 12 12 20 20 20 20 20 20 20 12 12 12 12 12 12 8 8 8 8 12 12 20 20 24 20 20 20 24
12 20 24 20 12 12 8 8 8 8 12 8 8 8 8 8 12 32 76 88 76 48 56 80 76 44 24 44 32 8 0 0 0 8 20 76 92 68 8 8 12 20 8 24 24 32 48 68 36 8 12 8 8 8 8 12 8 8 0 0 0 0 0 20 12 0 20 20 12 8 12 12 12 8 8 12 12 12 12 12 12 12 12 12 12 12 12 12 8 8 8 8 8 8 8 20 20 24 24 24 20 20 20
12 12 8 36 56 48 8 8 8 8 8 8 8 0 0 8 8 8 8 24 32 44 44 80 92 92 92 92 76 44 12 8 0 0 0 32 68 76 0 0 0 0 8 8 12 20 32 48 76 68 8 12 12 12 8 8 12 12 0 0 0 0 0 44 24 8 36 32 20 12 20 20 12 12 12 12 20 12 12 12 12 12 12 12 12 12 8 8 8 8 8 8 8 12 12 24 32 36 36 24 24 24 20
8 8 12 24 32 32 12 8 0 0 0 8 0 0 0 0 0 0 0 0 0 0 0 0 48 92 92 88 76 48 8 12 12 12 0 20 32 44 64 20 0 0 0 0 0 12 36 12 36 64 24 12 12 12 12 12 8 8 0 0 0 8 8 32 32 36 92 64 32 12 12 8 8 8 8 12 12 12 12 12 12 12 12 12 12 12 12 12 12 12 12 12 12 12 20 24 32 44 68 36 24 24 24
8 8 20 12 12 8 8 0 0 0 0 0 0 0 0 0 0 0 0 0 0 0 0 0 0 24 92 92 92 76 20 36 32 12 8 0 12 32 76 56 24 0 0 0 12 24 44 48 36 44 92 32 12 12 12 12 12 8 8 8 8 8 8 8 20 48 92 88 56 32 12 12 12 12 12 20 20 12 12 12 12 12 12 20 20 20 12 20 20 20 20 36 32 20 20 48 44 44 80 44 32 32 24
8 12 36 44 32 12 8 0 0 0 0 0 0 0 0 0 0 0 0 0 0 0 0 0 0 0 0 68 92 92 92 68 44 24 20 12 8 8 8 68 48 12 0 0 0 8 36 44 44 56 92 32 12 12 12 12 12 12 8 8 8 8 12 12 20 48 92 92 64 32 20 20 20 12 12 12 12 12 12 20 20 20 20 20 20 20 20 20 20 24 44 56 48 44 36 64 56 36 32 32 32 24 24
8 20 32 8 20 36 24 8 0 0 0 0 0 0 0 0 0 0 0 0 0 0 0 0 0 0 0 0 44 92 92 76 48 32 36 32 20 8 12 12 12 12 8 0 0 0 0 12 8 12 68 48 24 12 20 20 20 12 12 8 8 12 12 12 24 48 92 92 68 36 12 20 12 12 12 20 20 20 20 20 20 20 24 24 24 24 24 24 24 36 76 68 76 76 76 88 76 44 36 32 24 24 24
0 8 8 0 0 0 0 0 0 0 0 0 0 0 0 0 0 0 0 0 0 0 0 0 0 0 0 0 20 48 56 44 32 32 56 56 44 32 8 8 12 12 12 8 0 0 0 0 0 12 44 32 20 20 20 20 20 20 20 12 12 12 12 12 12 36 92 92 68 36 24 24 20 20 24 20 20 20 12 12 12 20 20 20 20 20 24 20 24 36 64 88 68 56 92 92 80 56 36 32 24 24 24
32 32 20 12 8 8 0 0 0 0 0 0 0 0 8 12 12 12 0 0 0 0 0 0 0 8 0 0 0 0 0 0 0 0 0 56 80 76 24 12 12 12 8 12 12 8 0 0 0 8 24 20 12 12 20 24 24 20 20 20 12 12 12 12 12 32 76 56 48 44 12 12 12 20 32 24 20 20 12 12 12 20 20 20 24 20 20 20 20 32 56 88 92 92 88 92 92 80 44 36 32 24 20
76 68 68 56 36 24 20 12 0 0 0 0 0 0 8 24 48 48 12 0 0 0 0 0 8 12 20 8 0 0 0 0 0 0 0 44 68 88 92 64 44 24 8 12 12 12 12 8 8 0 0 8 12 12 20 24 24 24 20 20 12 12 12 12 12 12 8 32 48 48 12 8 12 20 32 32 24 20 12 12 12 20 20 20 24 24 24 24 24 20 20 76 92 88 56 88 92 88 48 32 32 24 20
76 80 80 76 76 76 68 44 20 0 0 0 0 0 0 8 20 32 56 24 8 0 0 0 12 20 0 0 0 0 0 0 0 0 0 0 32 76 88 92 92 80 32 12 8 12 20 8 8 0 0 0 8 8 12 12 20 20 20 12 12 12 12 12 12 12 12 36 44 36 12 8 12 20 24 20 20 20 12 12 12 20 20 20 20 20 24 24 24 24 24 80 92 92 80 92 92 92 76 44 32 32 20
64 76 76 80 80 80 80 76 56 32 12 8 0 0 0 12 20 20 44 56 36 12 0 0 0 0 0 0 0 0 0 0 0 0 8 8 24 48 68 88 92 92 92 44 32 36 36 20 8 0 0 0 0 0 0 12 12 20 20 20 20 20 20 20 20 12 24 36 44 36 8 0 8 12 24 20 12 12 12 12 20 20 20 20 20 20 24 24 24 32 36 80 92 92 92 92 92 88 64 48 44 44 24
68 68 68 76 80 80 80 80 76 68 56 44 32 20 8 0 0 0 0 36 48 44 0 0 0 0 0 0 0 0 0 0 0 0 20 12 12 24 56 64 76 92 92 88 76 68 68 36 20 8 0 0 0 0 0 0 12 20 20 20 20 20 20 24 20 12 24 24 32 32 8 0 0 8 20 20 20 20 20 12 12 12 12 20 20 24 24 24 20 24 32 68 88 92 88 92 92 80 56 56 64 64 36
68 64 56 68 76 76 80 76 76 76 80 80 76 56 32 12 0 0 0 24 44 48 8 8 8 8 8 0 0 0 0 0 0 0 0 0 0 8 0 8 24 56 88 88 88 80 76 44 20 12 8 0 0 0 0 0 8 20 24 24 24 20 20 20 12 12 12 20 20 20 12 0 0 8 8 20 20 20 24 12 12 12 12 12 20 24 32 32 24 20 24 44 76 92 80 92 80 68 56 56 64 64 48
64 56 56 64 68 76 80 76 76 80 88 88 88 80 76 48 24 12 8 48 68 56 20 20 24 24 24 32 20 0 0 0 8 12 8 0 0 0 0 0 8 20 68 76 88 88 80 56 32 12 12 8 0 0 0 0 0 12 20 20 20 20 20 12 12 12 12 12 12 12 12 8 8 8 8 12 12 20 32 12 12 12 12 12 20 20 24 32 32 24 24 32 48 80 92 92 88 76 64 48 48 56 56
64 56 64 64 68 68 80 76 76 80 88 88 88 88 88 80 64 44 36 76 88 76 56 48 48 56 56 64 48 32 20 44 56 64 56 48 44 44 44 44 48 48 64 76 88 92 88 76 48 24 12 8 8 0 0 0 0 8 12 12 12 12 12 12 12 12 12 12 12 20 20 12 12 20 12 20 24 24 24 20 12 8 12 12 12 20 20 32 32 32 32 32 36 48 76 76 80 80 64 48 48 56 44
64 64 76 68 68 76 80 76 80 88 88 88 88 88 88 88 76 68 68 80 88 92 92 88 88 80 68 68 64 64 68 88 92 92 92 92 92 88 88 92 92 88 88 88 88 92 88 80 64 36 20 12 8 8 0 0 0 0 8 8 8 8 8 12 12 12 12 12 12 12 12 20 32 36 24 20 20 20 24 20 12 12 12 12 12 12 20 24 32 36 36 36 36 36 44 48 48 48 44 36 44 44 32
68 76 76 76 80 80 80 80 80 88 88 92 88 88 88 88 80 68 64 76 88 92 92 92 92 92 88 80 80 80 92 92 92 92 80 56 68 92 92 92 92 92 88 92 92 92 92 80 68 48 20 12 8 8 8 8 8 8 8 8 8 8 8 12 12 12 12 12 20 20 12 20 36 48 32 44 32 20 24 20 12 12 12 12 12 12 12 20 24 32 36 36 36 36 36 44 36 32 32 32 32 32 32
76 80 80 80 80 80 80 88 88 92 92 92 92 92 88 88 88 80 76 68 80 92 92 92 92 92 92 92 92 92 92 92 68 44 36 20 36 64 92 92 92 92 88 88 92 92 92 88 76 56 24 12 8 0 8 0 0 0 8 0 0 0 8 8 8 12 20 20 20 24 20 20 32 48 44 56 36 20 24 12 12 12 12 20 12 12 12 12 12 20 36 36 44 44 44 44 44 36 32 32 32 32 36
80 88 88 88 88 88 88 88 92 92 92 92 92 92 92 92 88 88 88 80 76 76 88 92 92 92 92 92 92 92 92 76 44 24 68 68 76 80 92 92 88 88 92 92 92 92 92 92 88 76 56 24 8 8 8 0 0 0 8 8 8 8 8 12 12 12 24 24 24 24 20 20 24 32 36 56 44 24 24 12 8 12 12 12 12 12 12 12 12 12 20 24 36 48 48 44 44 44 36 44 44 36 44
56 88 88 88 88 88 88 88 88 92 92 92 92 92 92 92 92 88 88 76 68 76 76 80 88 92 92 92 92 92 92 64 64 76 92 92 92 88 64 64 64 68 92 92 92 92 92 92 92 88 88 64 36 20 8 8 8 8 8 8 8 8 8 20 20 20 20 24 24 24 20 20 20 20 20 44 36 20 20 12 12 12 12 8 8 12 12 12 20 20 20 24 32 36 64 56 48 44 48 48 48 48 56
12 44 88 92 88 88 92 88 88 88 88 92 92 92 92 92 92 92 88 88 88 88 88 76 80 88 92 92 92 92 92 68 64 76 92 92 92 88 64 48 64 88 92 92 92 92 92 92 92 92 92 88 68 44 20 12 8 8 8 8 12 12 12 20 32 36 24 24 20 20 20 20 20 20 12 24 24 20 20 12 12 20 20 8 8 12 12 12 12 12 20 20 24 44 88 68 64 56 56 48 44 44 48
0 8 32 68 88 92 92 92 88 88 88 92 92 92 92 92 92 92 92 92 92 92 92 88 80 88 92 92 92 92 92 88 68 48 48 76 88 92 88 56 68 92 92 92 92 92 92 88 92 92 88 80 68 56 24 20 12 12 12 12 12 20 20 20 32 44 36 32 24 20 20 20 12 12 8 8 12 12 12 12 12 12 20 8 8 8 12 12 12 12 12 24 24 44 92 92 68 48 48 44 36 36 44
0 0 0 8 12 12 20 48 76 88 88 88 92 92 92 92 92 92 92 92 92 92 92 92 92 92 92 92 92 92 92 92 88 80 68 76 88 92 92 88 92 92 92 92 92 88 80 80 80 88 92 92 88 76 56 32 20 20 12 12 12 20 20 20 24 32 36 36 32 32 24 12 12 12 12 8 8 12 12 12 8 0 8 0 0 8 12 12 12 12 20 20 24 44 92 92 88 64 36 36 36 36 48
0 0 0 0 0 0 0 0 44 88 88 88 92 92 92 92 92 92 92 92 92 92 92 92 92 92 92 92 92 92 92 92 92 92 88 56 64 80 92 92 92 92 92 92 92 92 88 68 68 80 88 92 92 88 76 32 12 12 12 20 20 20 12 12 12 20 24 32 32 32 12 12 12 8 8 8 8 8 8 8 0 0 0 0 0 0 12 8 8 12 12 12 20 24 36 80 92 80 64 36 32 36 36
0 0 0 0 0 0 0 0 0 24 88 92 92 92 92 92 92 92 92 92 92 92 92 92 92 92 92 92 92 92 92 92 92 92 92 88 88 76 48 48 76 92 92 92 92 92 92 68 64 68 88 92 92 92 92 64 48 36 32 24 20 20 20 12 12 20 20 20 20 20 24 24 12 0 0 8 8 8 8 0 0 0 8 0 0 0 8 8 8 8 12 12 12 12 20 44 76 88 76 64 36 24 36
0 0 0 0 0 0 0 0 0 0 0 48 80 92 92 92 92 92 92 92 92 92 92 92 92 92 92 92 92 92 92 92 92 92 92 92 92 92 92 80 48 44 92 80 56 36 64 68 76 80 88 92 92 92 92 92 80 64 44 44 24 12 8 8 8 12 20 20 12 12 20 8 0 0 0 0 0 0 8 0 0 0 0 8 0 0 0 0 0 8 8 8 8 8 12 36 56 76 92 80 64 36 24
0 0 0 0 0 0 0 0 0 0 0 0 20 56 92 92 92 92 92 92 92 92 92 92 92 92 92 92 92 92 92 92 92 92 92 92 92 92 92 92 92 80 48 32 64 88 76 80 88 92 92 92 92 92 92 92 92 92 92 68 44 24 8 8 8 0 0 8 12 12 12 12 8 0 0 0 0 0 8 0 0 0 0 0 0 8 12 20 12 0 0 0 0 8 8 64 76 80 92 92 76 48 20
0 0 0 0 0 0 0 0 0 0 0 0 0 0 0 68 88 76 32 80 68 48 68 76 80 92 92 92 92 92 92 92 92 92 92 92 92 92 92 92 92 92 92 92 76 68 92 92 92 88 92 88 92 92 92 92 92 92 92 92 80 64 44 24 12 0 0 0 0 0 20 20 20 12 0 0 0 0 0 0 0 0 0 0 0 0 8 8 8 8 0 0 0 0 0 0 36 76 68 64 64 56 32
0 0 0 0 0 0 0 0 0 0 0 0 0 0 0 0 0 0 20 68 64 56 92 64 68 92 92 92 92 92 92 92 92 92 92 92 92 92 92 92 92 92 92 64 56 68 92 92 92 88 68 48 48 64 92 92 76 64 80 88 92 88 68 48 32 12 8 0 0 0 0 24 32 24 12 8 0 0 0 0 0 0 0 0 0 0 0 0 8 8 0 0 0 0 0 0 12 32 36 48 76 80 44
0 0 0 0 0 0 0 0 0 0 0 0 0 0 0 0 0 0 0 44 68 80 92 92 92 92 92 92 92 92 92 92 80 76 92 88 80 88 92 92 92 92 92 92 80 76 92 88 80 88 80 68 36 24 56 80 80 64 44 32 48 68 32 48 44 32 12 12 8 0 0 12 24 32 24 12 8 0 0 0 0 0 0 0 0 0 0 0 0 0 8 0 0 0 0 0 8 24 36 56 80 88 64
0 0 0 0 0 0 0 0 0 0 0 0 0 0 0 0 0 0 0 0 12 36 88 92 92 92 92 92 88 88 92 92 88 80 88 48 36 48 92 92 92 92 92 92 80 68 92 36 24 24 20 68 80 68 24 48 48 36 12 0 0 0 0 0 20 36 24 20 12 0 0 0 0 8 32 24 12 0 0 0 0 0 0 0 0 0 0 0 0 0 0 0 0 0 0 8 0 0 0 24 68 88 56
0 0 0 0 0 0 0 0 0 0 0 0 0 0 0 0 0 0 0 0 32 68 76 88 92 92 92 92 76 64 80 92 64 36 64 88 92 92 92 92 92 92 92 92 92 92 92 88 48 36 88 36 24 36 76 92 80 56 24 12 8 8 8 0 0 8 24 24 20 8 8 0 0 0 8 24 24 20 12 8 0 0 0 0 0 0 0 0 0 0 0 0 0 0 0 8 0 0 0 68 92 88 64
0 0 0 0 0 0 0 0 0 0 0 0 0 0 0 0 0 0 0 0 0 12 64 88 92 92 92 92 92 92 92 92 68 56 92 88 88 92 92 92 92 92 92 92 92 92 92 64 48 48 56 48 48 44 36 76 88 80 44 24 20 20 12 8 0 0 0 12 20 24 12 8 0 0 0 8 20 24 24 12 8 0 0 0 0 0 0 0 0 0 0 0 0 0 0 0 0 0 0 56 88 92 92
0 0 0 0 0 0 0 0 0 0 0 0 0 0 0 0 0 0 0 0 0 20 88 92 92 92 92 92 92 92 92 92 92 92 92 92 92 92 92 92 92 92 92 92 92 92 92 92 92 80 48 48 56 68 80 64 68 80 68 32 20 20 8 8 0 0 0 0 8 20 32 12 8 0 0 0 12 24 24 24 12 8 8 8 0 0 0 8 0 0 0 0 0 0 0 0 8 8 0 8 48 88 76
0 0 0 0 0 0 0 0 0 0 0 0 0 0 0 0 0 0 0 0 0 12 64 88 92 88 76 88 92 88 76 88 92 88 64 64 76 92 92 92 92 92 92 92 92 92 92 92 92 92 92 88 88 80 68 64 68 76 76 48 32 20 8 8 0 0 0 0 0 8 32 24 20 8 0 0 0 8 8 24 24 20 20 20 12 12 20 12 12 8 12 12 8 0 0 0 12 20 0 0 24 56 64
0 0 0 0 0 0 0 0 0 0 0 0 0 0 0 0 0 0 0 0 0 0 20 76 92 80 44 56 56 56 64 64 76 76 36 12 44 80 64 68 80 92 80 92 92 92 92 92 92 92 92 92 92 92 92 88 88 80 48 36 32 32 20 8 0 0 0 0 0 0 20 20 12 8 12 0 0 0 0 20 32 36 36 36 36 32 32 24 20 12 12 12 12 8 0 0 8 8 12 12 12 20 32
0 0 0 0 0 0 0 0 0 0 0 0 0 0 0 0 0 0 0 0 0 0 0 36 48 56 76 64 32 20 48 32 36 64 92 56 44 36 32 36 68 88 80 88 92 88 64 68 68 76 76 88 88 80 92 64 48 56 64 48 36 36 48 20 8 8 0 0 0 0 0 0 0 0 8 8 8 8 0 0 20 36 48 36 44 44 32 24 24 20 8 8 12 12 8 8 8 8 12 12 8 12 20
0 0 0 0 0 0 0 0 0 0 0 0 0 0 0 0 0 0 0 0 0 0 0 0 0 20 88 80 44 8 0 8 8 32 92 92 68 48 48 64 76 88 92 92 92 88 56 56 36 24 32 44 44 48 64 20 8 12 32 44 36 32 44 20 8 8 8 0 0 0 0 0 0 0 0 0 8 12 12 8 12 24 36 44 36 36 32 32 36 32 12 8 8 12 12 12 8 8 0 8 8 12 32
0 0 0 0 0 0 0 0 0 0 0 0 0 0 0 0 0 0 0 0 0 0 0 0 0 8 44 36 20 0 0 0 0 8 44 80 92 80 44 36 36 44 48 80 80 76 92 64 32 20 24 36 44 36 24 32 24 20 48 32 12 8 8 0 0 0 0 0 0 0 0 0 0 0 0 0 8 12 20 24 20 12 20 36 36 24 12 24 32 32 12 12 8 8 12 20 20 12 8 0 8 12 32
0 0 0 0 0 0 0 0 0 0 0 0 0 0 0 0 0 0 0 0 0 0 0 0 0 0 0 0 0 0 0 0 0 0 0 32 48 64 76 56 48 44 12 32 32 36 92 56 56 68 68 88 80 56 20 64 44 20 44 20 8 0 0 0 0 0 0 0 0 0 0 0 0 0 0 0 12 24 12 20 24 24 20 36 36 20 0 12 20 24 24 20 12 8 12 24 24 20 12 8 8 12 32
0 0 0 0 0 0 0 0 0 0 0 0 0 0 0 0 0 0 0 0 0 0 0 0 0 0 0 0 0 0 0 0 0 0 0 0 8 12 36 80 92 88 68 20 0 8 36 24 36 64 92 92 92 88 56 88 64 24 20 8 0 0 0 0 0 0 0 0 0 0 0 0 0 0 0 0 8 12 32 20 24 32 24 48 44 24 12 12 12 20 32 36 24 12 12 32 36 32 12 8 8 12 24
0 0 0 0 0 0 0 0 0 0 0 0 0 0 0 0 0 0 0 0 0 0 0 0 0 0 0 0 0 0 0 0 0 0 0 0 0 0 0 24 32 44 88 68 64 44 0 44 36 20 44 56 76 80 32 32 20 12 24 12 12 8 0 0 0 0 0 0 0 0 0 0 0 0 0 0 0 0 12 24 24 24 32 44 36 32 24 20 20 24 36 48 44 32 20 32 44 44 32 20 8 8 12
0 0 0 0 0 0 0 0 0 0 0 0 0 0 0 0 0 0 0 0 0 0 0 0 0 0 0 0 0 0 0 0 0 0 0 0 0 0 0 0 0 8 24 24 48 68 64 88 80 48 8 24 44 44 0 0 0 0 8 12 8 0 0 0 0 0 0 0 0 0 0 0 0 0 0 0 0 0 0 8 24 36 36 44 48 44 24 24 24 24 32 48 48 36 24 24 44 48 44 32 20 12 8
0 0 0 0 0 0 0 0 0 0 0 0 0 0 0 0 0 0 0 0 0 0 0 0 0 0 0 0 0 0 0 0 0 0 0 48 36 8 0 0 0 0 0 0 8 20 24 24 24 20 0 0 12 20 12 0 0 0 12 44 32 0 0 0 0 0 0 0 0 0 0 0 0 0 0 0 0 0 0 0 8 12 24 32 36 44 36 32 32 24 32 44 48 36 24 32 32 32 44 32 20 12 12
0 0 0 0 0 0 0 0 0 0 0 0 0 0 0 0 0 0 0 0 0 0 0 0 0 0 0 0 0 0 0 0 0 8 36 64 44 8 0 0 0 0 0 0 0 0 0 0 0 12 48 68 64 64 80 76 64 44 32 44 24 0 0 0 0 0 0 0 0 0 0 0 0 0 0 0 0 0 0 0 0 0 0 0 8 8 8 24 36 36 36 44 48 48 44 48 36 24 44 36 24 12 0
0 0 0 0 0 0 0 0 0 0 0 0 0 0 0 0 0 0 0 0 0 0 0 0 0 0 0 0 0 0 0 0 0 0 8 68 48 12 0 0 0 0 0 0 0 0 0 0 0 0 12 24 64 88 76 80 64 44 20 8 0 0 0 0 0 0 0 0 0 0 0 0 0 0 0 0 0 0 0 0 0 0 0 0 0 0 0 0 32 64 48 48 48 48 48 56 44 32 44 44 32 20 8
0 0 0 0 0 0 0 0 0 0 0 0 0 0 0 0 0 0 0 0 0 0 0 0 0 0 0 0 0 0 0 0 0 0 0 8 8 0 0 0 0 0 0 0 0 0 0 0 0 0 0 0 8 12 8 8 8 0 0 0 0 0 0 0 0 0 0 0 0 0 0 0 0 0 0 0 0 0 0 0 0 0 0 0 0 0 0 0 32 64 68 68 68 64 56 64 48 36 44 48 48 44 24
0 0 0 0 0 0 0 0 0 0 0 0 0 0 0 0 0 0 0 0 0 0 0 0 0 0 0 0 0 0 0 0 0 0 0 0 0 0 0 44 48 32 0 0 0 0 0 0 0 0 0 0 0 0 0 0 0 0 0 0 0 0 0 0 0 0 0 0 0 0 0 0 0 0 0 0 0 0 0 0 0 0 0 20 12 0 0 0 0 12 32 56 76 76 68 68 64 64 68 64 56 48 36
0 0 0 0 0 0 0 0 0 0 0 0 0 0 0 0 0 0 0 0 0 0 0 0 0 0 0 0 0 0 0 0 0 0 0 0 0 20 88 24 0 0 0 0 0 0 0 0 0 0 0 0 0 0 0 0 0 0 0 0 0 0 0 0 0 0 0 0 0 0 0 0 0 0 0 0 0 0 0 0 0 0 0 24 32 20 8 0 0 0 0 24 44 64 80 80 80 76 76 88 92 80 36
0 0 0 0 0 0 0 0 0 0 0 0 0 0 0 0 0 0 0 0 0 0 0 0 0 0 0 0 0 0 0 0 0 0 0 0 0 0 0 0 0 0 0 0 0 0 0 0 0 0 0 0 0 0 0 0 0 0 0 0 0 0 0 0 0 0 0 0 0 0 0 0 0 0 0 0 0 0 0 0 0 0 0 0 20 36 12 0 0 0 0 0 12 36 76 92 92 92 92 92 92 92 92
0 0 0 0 0 0 0 0 0 0 0 0 0 0 0 0 0 0 0 0 0 0 0 0 0 0 0 0 0 0 0 0 0 0 0 0 0 20 88 68 48 48 64 24 8 0 0 0 0 0 0 0 0 0 0 0 0 0 0 0 0 0 0 0 0 0 0 0 0 0 0 0 0 0 0 0 8 24 32 24 20 12 12 0 0 8 0 20 12 8 20 0 0 12 64 64 80 92 92 92 92 92 92
0 0 0 0 0 0 0 0 0 0 0 0 0 0 0 0 0 0 0 0 0 0 0 0 0 0 0 0 0 0 0 0 0 0 0 0 0 0 0 64 88 92 88 20 0 8 0 0 0 0 0 0 0 8 0 0 0 0 0 0 0 0 0 0 0 0 0 0 0 0 0 0 0 0 0 0 24 44 20 8 0 8 8 0 0 8 32 48 48 32 20 0 0 8 36 48 56 68 92 92 92 92 92
0 8 0 0 8 8 0 0 0 0 0 0 0 0 0 0 0 0 0 0 0 0 0 0 0 0 0 0 0 0 0 0 0 0 0 0 0 0 0 0 36 76 44 20 48 88 68 80 56 32 32 12 48 92 80 56 32 20 12 0 0 0 0 0 0 0 0 0 0 0 0 0 0 0 0 0 0 0 20 12 12 20 12 12 12 20 36 32 36 36 24 8 0 0 0 0 20 56 80 68 80 92 92
12 32 24 24 24 24 36 20 8 0 0 0 0 0 0 0 0 0 0 0 0 0 0 0 0 0 0 0 0 0 0 0 0 0 0 0 0 0 0 0 0 24 80 92 88 88 92 88 88 88 92 76 76 80 80 32 20 24 8 0 0 0 0 0 0 0 0 0 0 0 0 0 0 0 0 0 0 0 0 20 24 12 12 12 12 12 24 8 0 0 0 8 0 0 0 0 24 48 64 56 64 76 92
12 24 20 24 24 32 36 36 24 12 0 0 0 0 0 0 0 0 0 0 0 0 0 0 0 0 0 0 0 0 0 0 0 0 0 0 0 0 0 0 0 0 8 56 44 32 76 56 56 76 92 68 32 8 0 24 32 20 0 0 0 0 0 0 0 0 0 0 0 0 0 0 0 0 0 0 0 0 0 0 8 8 8 12 8 12 32 8 0 0 0 0 0 0 0 0 0 8 44 36 24 32 80
8 20 36 36 36 36 44 36 32 24 8 0 0 0 0 0 0 0 0 0 0 0 0 0 0 0 0 0 0 0 0 0 0 0 0 0 0 0 0 0 0 0 0 0 0 0 0 24 56 88 92 92 76 44 0 0 0 0 0 0 0 0 0 0 0 0 0 0 0 0 0 0 0 0 0 0 0 0 0 0 0 0 0 0 0 0 0 0 0 0 0 0 0 0 0 0 8 0 0 8 8 12 48
0 24 76 64 48 44 56 56 56 48 44 24 12 8 8 0 0 0 0 0 0 0 0 0 0 0 0 0 0 0 0 0 0 0 0 0 0 0 0 0 0 0 0 0 0 8 12 8 24 56 92 92 92 76 20 12 8 8 24 24 20 12 0 0 12 20 8 8 0 0 0 0 0 0 0 0 0 0 0 0 0 0 0 0 8 8 0 0 0 0 0 0 0 0 0 12 24 24 8 0 8 8 8